Regional Weather Roundup
Issued by NWS Portland, ME

Home | Current Version | Previous Version | Text Only | Print | Product List | Glossary On
Versions: 1 2 3 4 5 6 7 8 9 10 11 12 13 14 15 16 17 18 19 20 21 22 23 24 25 26 27 28 29 30 31 32 33 34 35 36 37 38 39 40 41 42 43 44 45 46 47 48 49 50
493
ASUS41 KGYX 010805
RWRGYX
WEATHER ROUNDUP FOR MAINE AND NEW HAMPSHIRE
NATIONAL WEATHER SERVICE GRAY ME
400 AM EDT WED JUN 01 2016

MEZ002-005-006-010-012-015-018-020-021-024-026-027-029-010900-
MAINE

CITY           SKY/WX    TMP DP  RH WIND       PRES   REMARKS
PORTLAND       CLEAR     57  51  80 N5        30.03R
SANFORD        CLEAR     48  45  87 CALM      30.05R
BAR HARBOR     CLEAR     58  53  84 N3        30.02R
WISCASSET      CLEAR     53  50  89 CALM      30.05R
ROCKLAND       CLEAR     60  52  74 VRB5      30.02R
FRYEBURG       CLEAR     51  50  96 CALM      30.06R
LEWISTONAUBURN CLEAR    N/A N/A N/A N5        30.05R
AUGUSTA        CLEAR     58  51  78 NW7       30.04R
WATERVILLE     CLEAR     59  52  77 N8        30.02R
BANGOR         PTCLDY    62  53  72 N12       30.04R
GREENVILLE       N/A     53  49  86 CALM      30.06R
MILLINOCKET    CLEAR     59  50  72 VRB3      30.06R
HOULTON        PTCLDY    53  49  86 N7        30.04R
PRESQUE ISLE   CLEAR     51  47  86 CALM      30.08R
FRENCHVILLE    CLEAR     47  42  83 N7        30.08R
CARIBOU        CLEAR     51  45  79 N7        30.06R
$$

NHZ002-005-008-009-011-012-014-010900-
NEW HAMPSHIRE

CITY           SKY/WX    TMP DP  RH WIND       PRES   REMARKS
PORTSMOUTH     CLEAR     58  52  80 NW2       30.02R
ROCHESTER      CLEAR     58  51  78 NW8       30.03R
NASHUA         CLEAR     58  53  84 NW3       30.04R
MANCHESTER     CLEAR     62  52  69 CALM      30.02R
CONCORD        CLEAR     54  50  86 CALM      30.04R
LACONIA        CLEAR     55  52  89 NW3       30.06R
PLYMOUTH       FAIR      51  50  95 CALM      30.06R
BERLIN         CLOUDY    49  46  90 CALM      30.09R
WHITEFIELD     PTCLDY    48  44  86 CALM      30.09R
JAFFREY        PTCLDY    52  49  89 CALM      30.06R
KEENE          CLEAR    N/A N/A N/A CALM      30.06R
LEBANON        CLEAR     54  49  83 S3        30.07R
MT WASHINGTON  PTCLDY    41  39  93 NW30        N/A
$$

VTZ005-007-008-010900-
VERMONT

CITY           SKY/WX    TMP DP  RH WIND       PRES   REMARKS
ST JOHNSBURY     N/A     57  51  80 MISG      30.08R
MONTPELIER     FAIR      54  50  86 CALM      30.13R
BURLINGTON     CLOUDY    61  50  67 N7        30.09R
$$

MAZ007-012-024-CTZ003-RIZ002-NYZ038-NYZ072-010900-
SOUTHERN NEW ENGLAND AND NY

CITY           SKY/WX    TMP DP  RH WIND       PRES   REMARKS
BOSTON         PTCLDY    65  52  62 N8        30.01R
WORCESTER      CLEAR     64  47  53 N9        30.04R
NANTUCKET      CLEAR     60  59  96 SW3       29.98R
PROVIDENCE     CLEAR     64  56  75 CALM      30.00R
HARTFORD       PTCLDY    57  48  72 CALM      30.02R
ALBANY         PTCLDY    59  51  75 N6        30.06R
NEW YORK CITY  PTCLDY    74  62  67 NE3       30.01R
$$

ANZ081-ANZ082-ANZ150-NHZ014-MEZ023>029-010900-
COASTAL MARINE OBSERVATIONS

STATION/POSITION TIME  TEMP    WIND        PRES    WAVE
                       AIR SEA DIR/SP/G            HT/PER
                 (UTC) (F)     (DEG/KT/KT) (MB)    (FT/S)
MOUNT DESERT ROC 0800   61     310/ 10/ 11 1016.2R
MATINICUS ROCK   0700   63     310/  9/  9 1015.2R
ISLE OF SHOALS   0700   66      10/ 10/ 10 1015.8R
JEFFREYS LEDGE   0708      56                N/A     2/ 6
CASHES LEDGE BUO 0750   57 52  330/  4/  6 1015.6R   3/ 7
GEORGES BANK BUO 0650   54 53              1013.9    4/ 8
$$

.............KEY..............
   WCI - WIND CHILL
   TC  - TEMPERATURE IN CELSIUS
   VSB - VISIBILITY IN MILES
   HX  - HEAT INDEX
   FAIR- INDICATES FEW OR NO CLOUDS BELOW 12,000 FT, WITH NO
         SIGNIFICANT WEATHER AND/OR OBSTRUCTIONS TO VISIBILITY.






USA.gov is the U.S. government's official web portal to all federal, state and local government web resources and services.